Regional Weather Roundup
Issued by NWS

Home | Current Version | Previous Version | Graphics & Text | Print | Product List | Glossary On
Versions: 1 2 3 4 5 6 7 8 9 10 11 12 13 14 15 16 17 18 19 20 21 22 23 24 25 26 27 28 29 30 31 32 33 34 35 36 37 38 39 40 41 42 43 44 45 46 47 48 49 50
000
ASUS43 KMKX 260911
RWRWI

WISCONSIN REGIONAL WEATHER ROUNDUP
NATIONAL WEATHER SERVICE MILWAUKEE/SULLIVAN WI
300 AM CST SUN FEB 26 2017

NOTE: "FAIR" INDICATES FEW OR NO CLOUDS BELOW 12,000 FEET WITH NO
SIGNIFICANT WEATHER AND/OR OBSTRUCTIONS TO VISIBILITY.

WIZ001-002-006>008-014>016-023>028-261000-
NORTHWEST WISCONSIN

CITY           SKY/WX    TMP DP  RH WIND       PRES   REMARKS
SUPERIOR ARPT  LGT SNOW  26  25  96 SW7       29.69F VSB 3/4 WCI  19
ASHLAND        LGT SNOW  25  20  81 SW16G22   29.70F WCI  12
HAYWARD        LGT SNOW  23  15  71 S12       29.71F WCI  12
SIREN          CLOUDY    25  17  70 S9        29.72F WCI  15
CUMBERLAND     CLOUDY    23  14  68 S12       29.72F WCI  12
RICE LAKE      MOCLDY    22  15  74 S9        29.76F WCI  12
CHETEK         CLOUDY    22  16  77 S7        29.76F WCI  13
LADYSMITH      CLOUDY    20  15  79 S7        29.77F WCI  11
EAU CLAIRE     CLOUDY    22  15  75 S8        29.79F WCI  12
MENOMONIE      CLOUDY    24  17  73 S9        29.78F WCI  15
NEW RICHMOND   CLOUDY    23  15  71 S10       29.75F WCI  12
OSCEOLA        CLOUDY    26  17  71 S8        29.77F WCI  17
$$

WIZ003>005-009-010-017-018-261000-
NORTH CENTRAL WISCONSIN

CITY           SKY/WX    TMP DP  RH WIND       PRES   REMARKS
MANITOWISH WTR CLOUDY    19  13  79 S13       29.70F WCI   6
ARBOR VITAE    CLOUDY    19  13  75 SW7         N/A  WCI  10
WOODRUFF       CLOUDY    19  13  75 SW7         N/A  WCI  10
RHINELANDER    CLOUDY    18  12  77 SW8       29.76F WCI   8
EAGLE RIVER    CLOUDY    18  11  74 SW7       29.73F WCI   8
LAND O LAKES   CLOUDY    18  14  84 SW7       29.74F WCI   9
PHILLIPS       CLOUDY    18  13  80 SW10      29.74F WCI   6
TOMAHAWK       CLOUDY    18  11  75 S5        29.78F WCI  11
MEDFORD        FLURRIES  18  13  80 S12       29.77F WCI   6
MERRILL        NOT AVBL
$$

WIZ029-030-035-036-043>047-261000-
CENTRAL WISCONSIN

CITY           SKY/WX    TMP DP  RH WIND       PRES   REMARKS
WAUSAU         CLOUDY    19  13  77 SW8       29.81F WCI   9
MOSINEE        MOCLDY    19  16  86 S10       29.84F WCI   8
MARSHFIELD     LGT SNOW  19  13  77 S6        29.81F WCI  11
STEVENS POINT  CLOUDY    18  13  81 SW6       29.86F WCI   9
WAUPACA        CLOUDY    21  16  81 S5        29.90F WCI  15
WAUTOMA        CLOUDY    19  14  81 S6        29.91F WCI  11
WISC RAPIDS    CLOUDY    21  14  74 S8        29.87F WCI  11
CAMP DOUGLAS   PTCLDY    22  15  73 S9        29.87F WCI  12
$$

WIZ011>013-019>022-031-037>040-048>050-261000-
NORTHEAST WISCONSIN

CITY           SKY/WX    TMP DP  RH WIND       PRES   REMARKS
ANTIGO         CLOUDY    17  14  88 SW13      29.81F WCI   3
SHAWANO        CLOUDY    19  13  74 SW5       29.89S WCI  13
OCONTO         CLOUDY    19  11  73 SW7       29.90S WCI   9
STURGEON BAY   CLOUDY    19  13  77 SW10      29.90S WCI   7
GREEN BAY      CLOUDY    20  15  81 SW10      29.92S WCI   9
MANITOWOC      CLOUDY    20  13  74 SW10      29.93F WCI   9
APPLETON       LGT SNOW  21  14  73 SW13      29.90S WCI   9
CLINTONVILLE   LGT SNOW  19  14  79 SW6       29.90S WCI  11
OSHKOSH        FLURRIES  20  13  74 SW8       29.93S WCI  10
$$

WIZ032>034-041-042-053>061-261000-
SOUTHWEST WISCONSIN

CITY           SKY/WX    TMP DP  RH WIND       PRES   REMARKS
LA CROSSE      CLOUDY    28  18  66 S10       29.86F WCI  19
SPARTA         CLOUDY    24  17  74 S6        29.87F WCI  17
VIROQUA        CLOUDY    23  18  81 S8        29.85F WCI  13
BOSCOBEL       CLOUDY    27  18  69 SW5       29.91F WCI  22
PRAIRIE DU CHI CLOUDY    29  17  60 S7G16     29.89F WCI  22
PLATTEVILLE    PTCLDY    26  21  83 S8        29.92F WCI  17
$$

WIZ056-057-062-063-064-067-068-261000-
SOUTH CENTRAL WISCONSIN

CITY           SKY/WX    TMP DP  RH WIND       PRES   REMARKS
REEDSBURG      CLOUDY    22  16  78 S5        29.90F WCI  15
BARABOO/DELLS  CLOUDY    22  16  76 S8        29.89F WCI  13
LONE ROCK      CLOUDY    24  17  74 CALM      29.93F
MINERAL POINT  CLOUDY    27  21  80 S3        29.91F
MADISON        CLOUDY    22  16  78 S7        29.93F WCI  13
MIDDLETON      CLOUDY    24  19  81 CALM      29.93F
WATERTOWN      CLOUDY    20  16  84 S3        29.95F
MONROE         CLOUDY    25  19  80 S12       29.93F WCI  14
JANESVILLE     CLOUDY    27  19  74 S6        29.96F WCI  20
$$

WIZ051-052-058>065-066-070>072-261000-
SOUTHEAST WISCONSIN

CITY           SKY/WX    TMP DP  RH WIND       PRES   REMARKS
MILWAUKEE      MOCLDY    23  14  68 SW6       29.99S WCI  16
WAUKESHA       CLOUDY    19  14  79 SW5       29.98S WCI  13
MILWAUKEE/TIMM MOCLDY    21  12  68 SW8       29.99S WCI  12
RACINE         CLOUDY    22  15  75 SW8       30.01F WCI  12
KENOSHA        CLOUDY    23  16  74 SW8       30.00S WCI  14
FOND DU LAC    CLOUDY    20  13  74 SW9       29.94F WCI   9
SHEBOYGAN      CLOUDY    19  13  77 SW5       29.94S WCI  12
WEST BEND      CLOUDY    21  16  79 SW3       29.95S
JUNEAU         CLOUDY    19  15  84 S3        29.95F
$$

LSZ147-162-261000-
LAKE SUPERIOR

STATION/POSITION TIME  TEMP    WIND        PRES    WAVE
                       AIR SEA DIR/SP/G            HT/PER
                 (UTC) (F)     (DEG/KT/KT) (MB)    (FT/S)
DEVILS ISLAND    0900   26     190/  8/ 11 1006.1F
PORT WING        0840   26     200/  8/ 13 1005.8F
SAXON HARBOR     0840   27     200/ 13/ 17 1006.1F
$$

LMZ867-665-643>646-261000-
LAKE MICHIGAN

STATION/POSITION TIME  TEMP    WIND        PRES    WAVE
                       AIR SEA DIR/SP/G            HT/PER
                 (UTC) (F)     (DEG/KT/KT) (MB)    (FT/S)
NORTHPORT PIER   0840   22        CALM     1011.9S
SISTER BAY       0835   21        CALM       N/A
KEWAUNEE LAKESHO 0848   21     280/ 11/ 15 1012.6F
SHEBOYGAN LAKESH 0900   22     210/ 10/ 11 1015.3R
PORT WASHINGTON  0830   22     250/  8/ 12 1015.9S
MILWAUKEE LAKESH 0850   24     240/ 11/ 13   N/A
KENOSHA   LAKESH 0900   24     220/  6/  8 1016.3
$$

TC  - TEMPERATURE IN CELSIUS
VSB - VISIBILITY IN STATUTE MILES
WCI - WIND CHILL INDEX
HX  - HEAT INDEX





USA.gov is the U.S. government's official web portal to all federal, state and local government web resources and services.